NDF4MA LCLK-LGAV

Flight info

Callsign NDF4MA
Flight time N/A
Altitude 36000
Route PHA2D PHA M31 GENOS DCT PEDER DCT EVENO UM601 RDS UL995 VARIX VARIX1R
Aircraft A321/M-SDE3FGHIRWY/LB1

Departure

Time 2026-05-08 06:53
Airport Larnaca International Airport (LCLK)

Arrival

Time N/A
Airport Athens Eleftherios Venizelos International Airport (LGAV)
Time Latitude Longitude Altitude Speed Heading
2026-05-08 06:35 34.86997 33.61111 21 ft 0 kts 225°
2026-05-08 06:45 34.86997 33.61112 20 ft 1 kts 225°
2026-05-08 06:45 34.87014 33.61133 20 ft 4 kts 222°
2026-05-08 06:45 34.87035 33.61153 21 ft 4 kts 207°
2026-05-08 06:46 34.87059 33.61161 20 ft 4 kts 166°
2026-05-08 06:46 34.87073 33.61153 20 ft 0 kts 135°
2026-05-08 06:48 34.87073 33.61154 20 ft 1 kts 135°
2026-05-08 06:48 34.87049 33.61182 20 ft 9 kts 136°
2026-05-08 06:48 34.86980 33.61264 20 ft 16 kts 135°
2026-05-08 06:49 34.86874 33.61282 18 ft 20 kts 222°
2026-05-08 06:49 34.86794 33.61185 18 ft 15 kts 225°
2026-05-08 06:49 34.86728 33.61103 20 ft 12 kts 225°
2026-05-08 06:49 34.86663 33.61066 21 ft 10 kts 167°
2026-05-08 06:50 34.86596 33.61072 23 ft 10 kts 207°
2026-05-08 06:50 34.86541 33.61036 24 ft 8 kts 188°
2026-05-08 06:50 34.86495 33.61063 23 ft 7 kts 129°
2026-05-08 06:50 34.86483 33.61120 22 ft 7 kts 86°
2026-05-08 06:51 34.86486 33.61137 21 ft 0 kts 78°
2026-05-08 06:51 34.86486 33.61139 21 ft 0 kts 78°
2026-05-08 06:51 34.86488 33.61149 23 ft 3 kts 77°
2026-05-08 06:51 34.86498 33.61201 21 ft 7 kts 76°
2026-05-08 06:52 34.86521 33.61290 20 ft 16 kts 70°
2026-05-08 06:52 34.86574 33.61411 18 ft 17 kts 51°
2026-05-08 06:52 34.86671 33.61533 16 ft 31 kts 46°
2026-05-08 06:52 34.86994 33.61930 23 ft 98 kts 45°
2026-05-08 06:53 34.87604 33.62677 20 ft 148 kts 45°
2026-05-08 06:53 34.88390 33.63650 366 ft 156 kts 46°
2026-05-08 06:53 34.89089 33.64551 1073 ft 145 kts 47°
2026-05-08 06:53 34.89781 33.65464 1515 ft 148 kts 47°
2026-05-08 06:54 34.90507 33.66422 1834 ft 163 kts 47°
2026-05-08 06:54 34.91236 33.67582 1999 ft 185 kts 69°
2026-05-08 06:54 34.91244 33.69195 2132 ft 206 kts 112°
2026-05-08 06:54 34.90249 33.70500 2293 ft 225 kts 156°
2026-05-08 06:55 34.88688 33.70634 2781 ft 232 kts 199°
2026-05-08 06:55 34.87415 33.69484 3463 ft 233 kts 239°
2026-05-08 06:55 34.86931 33.67617 4152 ft 234 kts 265°
2026-05-08 06:55 34.86880 33.65629 4871 ft 236 kts 271°
2026-05-08 06:56 34.86910 33.64305 5344 ft 237 kts 272°
2026-05-08 06:56 34.86936 33.62283 6037 ft 241 kts 269°
2026-05-08 06:56 34.86821 33.60158 6357 ft 263 kts 265°
2026-05-08 06:56 34.86599 33.57885 6871 ft 275 kts 263°
2026-05-08 06:57 34.86318 33.55564 7569 ft 279 kts 262°
2026-05-08 06:57 34.86002 33.53215 8297 ft 283 kts 261°
2026-05-08 06:57 34.85668 33.50842 9013 ft 286 kts 261°
2026-05-08 06:57 34.85323 33.48444 9727 ft 288 kts 261°
2026-05-08 06:58 34.84976 33.46026 10364 ft 295 kts 261°
2026-05-08 06:58 34.84614 33.43473 10528 ft 318 kts 261°
2026-05-08 06:58 34.84227 33.40729 10659 ft 340 kts 261°
2026-05-08 06:58 34.83820 33.37846 11092 ft 350 kts 261°
2026-05-08 06:59 34.83403 33.34912 11711 ft 353 kts 261°
2026-05-08 06:59 34.82979 33.31950 12363 ft 357 kts 261°
2026-05-08 06:59 34.82552 33.28966 13008 ft 360 kts 262°
2026-05-08 06:59 34.82122 33.25953 13641 ft 363 kts 262°
2026-05-08 07:00 34.81688 33.22917 14265 ft 366 kts 262°
2026-05-08 07:00 34.81255 33.19897 14846 ft 369 kts 262°
2026-05-08 07:00 34.80815 33.16811 15428 ft 372 kts 262°
2026-05-08 07:00 34.80371 33.13696 15998 ft 375 kts 262°
2026-05-08 07:01 34.79922 33.10556 16551 ft 378 kts 262°
2026-05-08 07:01 34.79468 33.07390 17098 ft 382 kts 262°
2026-05-08 07:01 34.79014 33.04198 17613 ft 384 kts 262°
2026-05-08 07:01 34.78558 33.00983 18132 ft 387 kts 262°
2026-05-08 07:02 34.78101 32.97754 18693 ft 388 kts 262°
2026-05-08 07:02 34.77643 32.94511 19198 ft 390 kts 263°
2026-05-08 07:02 34.77180 32.91257 19678 ft 392 kts 262°
2026-05-08 07:02 34.76708 32.87980 20120 ft 395 kts 262°
2026-05-08 07:03 34.76235 32.84681 20595 ft 397 kts 262°
2026-05-08 07:03 34.75763 32.81361 21035 ft 400 kts 262°
2026-05-08 07:03 34.75287 32.78017 21473 ft 402 kts 262°
2026-05-08 07:03 34.74806 32.74662 21898 ft 405 kts 262°
2026-05-08 07:04 34.74317 32.71280 22311 ft 407 kts 262°
2026-05-08 07:04 34.73822 32.67885 22730 ft 410 kts 262°
2026-05-08 07:04 34.73310 32.64466 23121 ft 412 kts 262°
2026-05-08 07:04 34.72784 32.61033 23523 ft 414 kts 262°
2026-05-08 07:05 34.72252 32.57580 23916 ft 417 kts 262°
2026-05-08 07:05 34.71718 32.54118 24374 ft 416 kts 262°
2026-05-08 07:05 34.71211 32.50659 24825 ft 415 kts 265°
2026-05-08 07:05 34.70987 32.47165 25203 ft 415 kts 269°
2026-05-08 07:06 34.70809 32.43650 25554 ft 417 kts 269°
2026-05-08 07:06 34.70629 32.40126 25901 ft 419 kts 269°
2026-05-08 07:06 34.70447 32.36585 26232 ft 421 kts 269°
2026-05-08 07:06 34.70263 32.33026 26548 ft 423 kts 268°
2026-05-08 07:07 34.70074 32.29449 26862 ft 426 kts 268°
2026-05-08 07:07 34.69880 32.25851 27146 ft 428 kts 268°
2026-05-08 07:07 34.69682 32.22236 27453 ft 430 kts 268°
2026-05-08 07:07 34.69481 32.18606 27754 ft 431 kts 268°
2026-05-08 07:08 34.69279 32.14964 28037 ft 433 kts 268°
2026-05-08 07:08 34.69077 32.11302 28318 ft 435 kts 268°
2026-05-08 07:08 34.68878 32.07680 28569 ft 437 kts 268°
2026-05-08 07:08 34.68675 32.03994 28851 ft 438 kts 268°
2026-05-08 07:09 34.68467 32.00292 29107 ft 440 kts 268°
2026-05-08 07:09 34.68261 31.96580 29381 ft 441 kts 269°
2026-05-08 07:09 34.68352 31.92864 29622 ft 441 kts 278°
2026-05-08 07:09 34.68965 31.89222 29876 ft 440 kts 288°
2026-05-08 07:10 34.70076 31.85773 30196 ft 439 kts 297°
2026-05-08 07:10 34.71590 31.82546 30452 ft 440 kts 301°
2026-05-08 07:10 34.73158 31.79352 30762 ft 440 kts 301°
2026-05-08 07:10 34.74716 31.76161 31101 ft 439 kts 300°
2026-05-08 07:11 34.76266 31.72971 31447 ft 438 kts 300°
2026-05-08 07:11 34.77809 31.69788 31784 ft 436 kts 300°
2026-05-08 07:11 34.79349 31.66610 32131 ft 435 kts 300°
2026-05-08 07:11 34.80884 31.63443 32451 ft 434 kts 300°
2026-05-08 07:12 34.82416 31.60281 32786 ft 433 kts 300°
2026-05-08 07:12 34.83943 31.57128 33111 ft 432 kts 300°
2026-05-08 07:12 34.85466 31.53981 33436 ft 431 kts 300°
2026-05-08 07:12 34.86981 31.50845 33748 ft 429 kts 300°
2026-05-08 07:13 34.88494 31.47713 34062 ft 428 kts 300°
2026-05-08 07:13 34.89999 31.44592 34363 ft 427 kts 300°
2026-05-08 07:13 34.91502 31.41472 34657 ft 426 kts 300°
2026-05-08 07:13 34.93000 31.38363 34949 ft 425 kts 300°
2026-05-08 07:14 34.94496 31.35257 35224 ft 424 kts 300°
2026-05-08 07:14 34.95987 31.32161 35488 ft 424 kts 300°
2026-05-08 07:14 34.97477 31.29065 35749 ft 423 kts 300°
2026-05-08 07:14 34.98963 31.25975 35999 ft 422 kts 300°
2026-05-08 07:15 35.01903 31.19848 36106 ft 420 kts 300°
2026-05-08 07:15 35.04838 31.13712 36103 ft 418 kts 300°
2026-05-08 07:16 35.07775 31.07577 36105 ft 418 kts 300°
2026-05-08 07:16 35.10702 31.01435 36105 ft 418 kts 300°
2026-05-08 07:17 35.13620 30.95282 36104 ft 418 kts 300°
2026-05-08 07:17 35.16544 30.89134 36103 ft 419 kts 300°
2026-05-08 07:18 35.20081 30.83497 36098 ft 420 kts 312°
2026-05-08 07:18 35.24092 30.78284 36093 ft 421 kts 311°
2026-05-08 07:19 35.28098 30.73056 36093 ft 421 kts 311°
2026-05-08 07:19 35.32102 30.67814 36094 ft 421 kts 311°
2026-05-08 07:20 35.36101 30.62564 36092 ft 421 kts 311°
2026-05-08 07:20 35.40095 30.57313 36093 ft 421 kts 311°
2026-05-08 07:21 35.44095 30.52054 36095 ft 422 kts 311°
2026-05-08 07:21 35.48092 30.46789 36098 ft 422 kts 311°
2026-05-08 07:22 35.52095 30.41518 36099 ft 422 kts 311°
2026-05-08 07:22 35.56087 30.36236 36102 ft 422 kts 311°
2026-05-08 07:23 35.60049 30.30981 36103 ft 422 kts 311°
2026-05-08 07:23 35.64040 30.25693 36103 ft 422 kts 311°
2026-05-08 07:24 35.68031 30.20409 36102 ft 422 kts 311°
2026-05-08 07:24 35.72015 30.15113 36100 ft 421 kts 311°
2026-05-08 07:25 35.75990 30.09813 36099 ft 421 kts 311°
2026-05-08 07:26 35.81893 30.01796 36098 ft 420 kts 305°
2026-05-08 07:26 35.84583 29.95458 36095 ft 419 kts 288°
2026-05-08 07:27 35.86422 29.88643 36094 ft 419 kts 289°
2026-05-08 07:27 35.88279 29.81822 36095 ft 420 kts 289°
2026-05-08 07:28 35.90133 29.74995 36098 ft 420 kts 289°
2026-05-08 07:28 35.91976 29.68159 36099 ft 420 kts 288°
2026-05-08 07:29 35.93809 29.61314 36078 ft 421 kts 288°
2026-05-08 07:29 35.95646 29.54445 36062 ft 422 kts 288°
2026-05-08 07:30 35.97485 29.47599 36062 ft 424 kts 288°
2026-05-08 07:30 35.99360 29.40645 36066 ft 424 kts 288°
2026-05-08 07:31 36.01218 29.33724 36066 ft 425 kts 288°
2026-05-08 07:31 36.03072 29.26799 36071 ft 425 kts 288°
2026-05-08 07:32 36.04925 29.19866 36071 ft 425 kts 288°
2026-05-08 07:32 36.06769 29.12932 36073 ft 425 kts 288°
2026-05-08 07:33 36.08596 29.06046 36073 ft 425 kts 288°
2026-05-08 07:33 36.10428 28.99107 36073 ft 424 kts 288°
2026-05-08 07:34 36.12259 28.92169 36072 ft 424 kts 288°
2026-05-08 07:34 36.14086 28.85227 36070 ft 424 kts 288°
2026-05-08 07:35 36.15907 28.78285 36071 ft 424 kts 288°
2026-05-08 07:35 36.17729 28.71341 36067 ft 424 kts 288°
2026-05-08 07:36 36.19541 28.64394 36066 ft 424 kts 288°
2026-05-08 07:36 36.21350 28.57441 36073 ft 424 kts 288°
2026-05-08 07:37 36.23155 28.50487 36070 ft 424 kts 288°
2026-05-08 07:37 36.24957 28.43525 36067 ft 424 kts 287°
2026-05-08 07:38 36.26746 28.36555 36069 ft 425 kts 287°
2026-05-08 07:38 36.28528 28.29579 36071 ft 425 kts 287°
2026-05-08 07:39 36.30318 28.22599 36074 ft 425 kts 287°
2026-05-08 07:39 36.32107 28.15624 36075 ft 425 kts 287°
2026-05-08 07:40 36.33893 28.08646 36073 ft 424 kts 290°
2026-05-08 07:40 36.36243 28.01935 36071 ft 424 kts 293°
2026-05-08 07:41 36.38647 27.95261 36065 ft 423 kts 293°
2026-05-08 07:41 36.41026 27.88625 36064 ft 424 kts 293°
2026-05-08 07:42 36.43417 27.81942 36059 ft 424 kts 293°
2026-05-08 07:42 36.45796 27.75249 36064 ft 424 kts 293°
2026-05-08 07:43 36.48179 27.68547 36062 ft 424 kts 293°
2026-05-08 07:43 36.50570 27.61847 36062 ft 424 kts 293°
2026-05-08 07:44 36.51377 27.59583 36064 ft 424 kts 293°